Regional Weather Roundup
Issued by NWS Sterling, VA

Home | Current Version | Previous Version | Text Only | Print | Product List | Glossary Off
Versions: 1 2 3 4 5 6 7 8 9 10 11 12 13 14 15 16 17 18 19 20 21 22 23 24 25 26 27

000
ASUS41 KLWX 251210
RWRLWX

REGIONAL WEATHER ROUNDUP
NATIONAL WEATHER SERVICE BALTIMORE MD/WASHINGTON DC
800 AM EDT SAT MAR 25 2017

Note: "FAIR" indicates few or no clouds below 12,000 feet
with no significant weather and/or obstructions to visibility.
 TC=TEMPERATURE CELSIUS

 * =Non NWS site. Station does not report precipitation (e.g. rain,
    snow, etc.), thunder, or fog.

DCZ001-MDZ009-015-VAZ040>042-051-053>054-251300-
WASHINGTON METRO

CITY           SKY/WX    TMP DP  RH WIND       PRES   REMARKS
WASHINGTON NAT CLOUDY    56  49  77 S7        30.20R
DULLES         MOCLDY    56  46  69 S7        30.19R
ANDREWS AFB    MOSUNNY   58  47  66 SW8       30.19R
FT BELVOIR     MOSUNNY   52  45  77 CALM      30.19R
QUANTICO       CLOUDY    55  48  77 S8        30.21R
COLLEGE PARK*  CLOUDY    50  45  81 CALM      30.19R
LEESBURG*      PTCLDY    54  50  87 SW6       30.19R
MANASSAS*      CLOUDY    52  47  83 S3        30.20R

$$

MDZ006>007-011-014-251300-
BALTIMORE METRO

CITY           SKY/WX    TMP DP  RH WIND       PRES   REMARKS
BWI AIRPORT    CLOUDY    59  48  67 SW6       30.17R
MD SCIENCE CTR   N/A     58  45  62 MISG      30.18R
ANNAPOLIS      PTSUNNY   61  48  62 W7        30.18R
FORT MEADE*    CLOUDY    55  46  71 CALM      30.21R

$$

MDZ012-015-019>023-251300-
MARYLAND EASTERN SHORE

CITY           SKY/WX    TMP DP  RH WIND       PRES   REMARKS
OCEAN CITY     MOSUNNY   58  48  69 SW12      30.22R
SALISBURY      CLOUDY    58  49  72 SW8       30.22R
BAY BRIDGE AP* PTSUNNY   59  48  67 SW7       30.18S
CAMBRIDGE*     SUNNY     57  48  72 VRB3      30.21R
EASTON*        CLOUDY    57  48  72 SW8       30.23R

$$

MDZ017>025-251300-
SOUTHERN MARYLAND

CITY           SKY/WX    TMP DP  RH WIND       PRES   REMARKS
PATUXENT RIVER CLOUDY    59  50  72 SW13G21   30.20R
ST INIGOES     CLOUDY    58  48  69 S8        30.22R
LEONARDTOWN*   CLOUDY    59  46  63 SW9G18    30.22R

$$

MDZ003>005-251300-
NORTH CENTRAL MARYLAND

CITY           SKY/WX    TMP DP  RH WIND       PRES   REMARKS
FREDERICK*     CLOUDY    52  52 100 S3        30.20R
HAGERSTOWN APT MOCLDY    57  47  69 S8        30.16R
WESTMINSTER*   CLOUDY    57  48  72 SW6       30.17R

$$

MDZ501>502-251300-
WESTERN MARYLAND

CITY           SKY/WX    TMP DP  RH WIND       PRES   REMARKS
OAKLAND*       MOCLDY    54  45  71 SW8       30.22R
CUMBERLAND*    CLOUDY    61  48  63 CALM      30.20R

$$

VAZ025>031-251300-
SHENANDOAH VALLEY

CITY           SKY/WX    TMP DP  RH WIND       PRES   REMARKS
WINCHESTER*    CLOUDY    57  45  62 SW7       30.18R
FRONT ROYAL*     N/A    N/A N/A N/A MISG        N/A
LURAY*         MOCLDY    57  50  77 CALM      30.20R
NEW MARKET*    CLOUDY    56  46  68 SW7       30.20R
STAUNTON*      CLOUDY    56  46  70 SE5       30.24R
WAYNESBORO*    CLOUDY    58  48  68 W6        30.23R

$$

WVZ021-048>050-054>055-251300-
EASTERN WEST VIRGINIA PANHANDLE

CITY           SKY/WX    TMP DP  RH WIND       PRES   REMARKS
MARTINSBURG    CLOUDY    59  47  64 S6        30.16R
PETERSBURG*    CLOUDY    61  50  66 CALM      30.19R

$$

VAZ036>039-050-251300-
CENTRAL FOOTHILLS

CITY           SKY/WX    TMP DP  RH WIND       PRES   REMARKS
CHARLOTTESVILL CLOUDY    57  48  72 S7        30.21R
CULPEPER*      CLOUDY    54  49  84 CALM      30.21R
ORANGE*        MOCLDY    55  46  71 S7        30.23R
GORDONSVILLE*  CLOUDY    56  48  75 SW5       30.21R
WARRENTON*     CLOUDY    58  45  61 CALM      30.20R

$$

VAZ055>057-251300-
NORTH AND CENTRAL PIEDMONT

CITY           SKY/WX    TMP DP  RH WIND       PRES   REMARKS
FREDERICKSBRG* CLOUDY    60  49  68 SW7       30.20R
STAFFORD*      CLOUDY    59  48  67 SW7       30.24R

$$

NCZ024-NYZ072-PAZ021-071-VAZ022-071-251300-
OTHER REGIONAL OBSERVATIONS

CITY           SKY/WX    TMP DP  RH WIND       PRES   REMARKS
NEW YORK CITY  MOSUNNY   52  38  58 CALM      30.16R
PHILADELPHIA   CLOUDY    53  46  77 SW9       30.16R
PITTSBURGH     CLOUDY    62  50  64 SW7       30.14R
ROANOKE        MOCLDY    56  45  66 CALM      30.28R
RICHMOND       CLOUDY    57  49  74 SW6       30.26R
RALEIGH        MOCLDY    54  49  83 SW5       30.34R

$$

ANZ530>537-251300-
MARINE OBSERVATIONS

STATION/POSITION TIME  TEMP    WIND        PRES
                       AIR SEA DIR/SP/G
                 (UTC) (F)     (DEG/KT/KT) (MB)
THOMAS PT LIGHT  1200   58 44  230/  9/ 11   N/A
BALT KEY BRIDGE  1148   58     210/  2/  2 1021.8R
COVE POINT       1148   60     270/ 22/ 28 1022.7R
LEWISETTA        1148   59 48  250/ 12/ 15 1022.9R
SOLOMONS ISLAND  1148   59 46  270/  5/  9   N/A
PINEY POINT      1142          240/  6/  8   N/A

$$





USA.gov is the U.S. government's official web portal to all federal, state and local government web resources and services.